Regional Weather Roundup
Issued by NWS

Home | Current Version | Previous Version | Graphics & Text | Print | Product List | Glossary On
Versions: 1 2 3 4 5 6 7 8 9 10 11 12 13 14 15 16 17 18 19 20 21 22 23 24 25 26 27 28 29 30 31 32 33 34 35 36 37 38 39 40 41 42 43 44 45 46 47 48 49 50
000
ASUS45 KPSR 262000
RWRAZ

ARIZONA REGIONAL HOURLY WEATHER ROUNDUP
NATIONAL WEATHER SERVICE PHOENIX AZ
100 PM MST SUN APR 26 2015

NOTE: FAIR INDICATES FEW OR NO CLOUDS BELOW 12,000 FEET WITH NO
SIGNIFICANT WEATHER AND/OR OBSTRUCTIONS TO VISIBILITY.

AZZ001>003-036-262100-
NORTHWEST ARIZONA

CITY           SKY/WX    TMP DP  RH WIND       PRES   REMARKS
KINGMAN        SUNNY     63  30  28 N25G33    29.90F
$$

AZZ004>008-015-016-018-262100-
NORTH CENTRAL ARIZONA

CITY           SKY/WX    TMP DP  RH WIND       PRES   REMARKS
GRAND CANYON   PTSUNNY   49  33  54 NW10G18   29.87S
WILLIAMS       PTSUNNY   46  34  61 NW15G24   29.95S
PRESCOTT       LGT RAIN  50  36  58 NW10      29.87S
FLAGSTAFF      NOT AVBL
PAYSON         PTSUNNY   50  41  71 W8G16     29.87R
PAGE           CLOUDY    60  31  33 N13       29.81R
$$

AZZ009>014-017-262100-
NORTHEAST ARIZONA

CITY           SKY/WX    TMP DP  RH WIND       PRES   REMARKS
WINSLOW        NOT AVBL
SAINT JOHNS    CLOUDY    50  36  58 W15G22    29.80S
WINDOW ROCK    LGT RAIN  44  38  79 NE10      29.79R
SHOW LOW       RAIN      34  32  93 W5G18     29.87R VSB 1   WCI  30
$$

AZZ023-262100-
GREATER PHOENIX AREA

CITY           SKY/WX    TMP DP  RH WIND       PRES   REMARKS
PHOENIX        PTSUNNY   70  44  39 W6G17     29.80F
GLENDALE       PTSUNNY   73  41  31 W12G17    29.81F
DEER VALLEY    RAIN      60  51  72 NW8G22    29.82S
SCOTTSDALE     PTSUNNY   67  45  45 W10       29.82F
MESA-FALCON    PTSUNNY   66  43  42 SW8       29.82F
MESA-GATEWAY   PTSUNNY   66  45  45 W9        29.85F
$$

AZZ027-028-262100-
SOUTHWEST MARICOPA COUNTY AND PINAL COUNTY

CITY           SKY/WX    TMP DP  RH WIND       PRES   REMARKS
CASA GRANDE    PTSUNNY   72  39  30 W15G23    29.82F
$$

AZZ503-504-507>509-262100-
SOUTHEAST ARIZONA

CITY           SKY/WX    TMP DP  RH WIND       PRES   REMARKS
TUCSON         PTSUNNY   67  37  33 W15G24    29.89F
DAVIS-MONTHAN  MOSUNNY   66  37  34 W15G24    29.86F
RYAN FIELD       N/A     68  37  32 NW16G25   29.88F
NOGALES        MOSUNNY   65  29  25 W16G30    29.90F
SAFFORD        PTSUNNY   55  45  68 NW16      29.84S
$$

AZZ020-021-025-026-031-262100-
SOUTHWEST ARIZONA

CITY           SKY/WX    TMP DP  RH WIND       PRES   REMARKS
YUMA           NOT AVBL
$$

CAZ031-033-041-043-047-048-061-262100-
SOUTHERN CALIFORNIA

CITY           SKY/WX    TMP DP  RH WIND       PRES   REMARKS
DOWNTOWN L.A.  SUNNY     73  47  39 VRB6      29.96F
L.A. AIRPORT   MOSUNNY   66  50  56 W12       29.99F
SAN DIEGO      PTSUNNY   67  49  52 W9        30.00F
BURBANK        SUNNY     75  36  24 NW8       29.95F
ONTARIO        PTSUNNY   70  46  42 W13       29.96F
RIVERSIDE      SUNNY     70  46  42 W9        29.96F
PALM SPRINGS   SUNNY     82  33  17 N5        29.89F
EL CENTRO NAS  SUNNY     83  28  13 N13G22    29.88F
IMPERIAL       SUNNY     81  33  17 NW10      29.85F
BLYTHE         SUNNY     80  26  13 NW22      29.84F
$$

NVZ020-UTZ003-262100-
SOUTHERN NEVADA-UTAH

CITY           SKY/WX    TMP DP  RH WIND       PRES   REMARKS
LAS VEGAS      NOT AVBL
SALT LAKE CITY PTSUNNY   48  33  56 N17       30.01R
$$

NMZ009-TXZ055-262100-
NEW MEXICO-WEST TEXAS

CITY           SKY/WX    TMP DP  RH WIND       PRES   REMARKS
ALBUQUERQUE    LGT RAIN  47  41  80 E8        29.75S
EL PASO        PTSUNNY   58  36  43 SW17G25   29.81F
$$


........................KEY........................
SKY/WX - SKY CONDITION/WEATHER
TMP    - TEMPERATURE IN FAHRENHEIT
DP     - DEW POINT IN FAHRENHEIT
RH     - RELATIVE HUMIDITY IN PERCENT
WIND   - DIRECTION AND SPEED IN MILES PER HOUR (MPH)
VRB    - VARIABLE WIND DIRECTION
PRES   - MEAN SEA LEVEL PRESSURE IN INCHES OF MERCURY
         F - FALLING PRESSURE   R - RISING PRESSURE
         S - STEADY PRESSURE
VSB    - VISIBILITY IN MILES
HX     - HEAT INDEX IN FAHRENHEIT
WCI    - WIND CHILL INDEX IN FAHRENHEIT
TC     - TEMPERATURE IN CELSIUS WHICH IS ALSO KNOWN AS
         TEMPERATURE IN CENTIGRADE
AFB    - AIR FORCE BASE
         LUKE AFB IS LUKE AIR FORCE BASE
         DAVIS-MONTHAN IS DAVIS-MONTHAN AIR FORCE BASE
NAS    - NAVAL AIR STATION
         EL CENTRO NAS IS EL CENTRO NAVAL AIR STATION
N/A    - NOT AVAILABLE




USA.gov is the U.S. government's official web portal to all federal, state and local government web resources and services.